Weather reports worldwide

Advertisment
Santiago Q. Normal, Chile (85577): temperature & dewpoint: 19.08.2019 03:00:00 - 25.08.2019 03:00:00 (CLT)Santiago Q. Normal, Chile (85577): wind speed: 19.08.2019 03:00:00 - 25.08.2019 03:00:00 (CLT)Santiago Q. Normal, Chile (85577): wind direction: 19.08.2019 03:00:00 - 25.08.2019 03:00:00 (CLT)Santiago Q. Normal, Chile (85577): reduced air pressure: 19.08.2019 03:00:00 - 25.08.2019 03:00:00 (CLT)Santiago Q. Normal, Chile (85577): visibility: 19.08.2019 03:00:00 - 25.08.2019 03:00:00 (CLT)
Date & Time tt [°C] td [°C] ff [km/h] ff [kn] dd ppp [hPa] vv [km]
25.08.2019 03:00:00 - - - - - - -
25.08.2019 02:00:00 - - - - - - -
25.08.2019 01:00:00 - - - - - - -
25.08.2019 00:00:00 11,3 6,3 0 0 N 1019,0 10
24.08.2019 23:00:00 - - - - - - -
24.08.2019 22:00:00 - - - - - - -
24.08.2019 21:00:00 17,1 6,0 4 2 SSW 1018,1 10
24.08.2019 20:00:00 - - - - - - -
24.08.2019 19:00:00 - - - - - - -
24.08.2019 18:00:00 21,1 4,5 8 4 SSW 1015,8 10
24.08.2019 17:00:00 - - - - - - -
24.08.2019 16:00:00 - - - - - - -
24.08.2019 15:00:00 22,4 3,2 4 2 S 1016,1 10
24.08.2019 14:00:00 - - - - - - -
24.08.2019 13:00:00 - - - - - - -
24.08.2019 12:00:00 17,9 5,9 0 0 N 1018,9 10
24.08.2019 11:00:00 - - - - - - -
24.08.2019 10:00:00 - - - - - - -
24.08.2019 09:00:00 11,9 5,7 2 1 WNW 1019,8 10
24.08.2019 08:00:00 - - - - - - -
24.08.2019 07:00:00 - - - - - - -
24.08.2019 06:00:00 11,2 6,2 0 0 N 1019,0 10
24.08.2019 05:00:00 - - - - - - -
24.08.2019 04:00:00 - - - - - - -
24.08.2019 03:00:00 10,2 5,5 0 0 N 1019,3 10
24.08.2019 02:00:00 - - - - - - -
24.08.2019 01:00:00 - - - - - - -
24.08.2019 00:00:00 13,7 6,1 0 0 N 1019,2 10
23.08.2019 23:00:00 - - - - - - -
23.08.2019 22:00:00 - - - - - - -
23.08.2019 21:00:00 18,7 6,4 4 2 S 1018,0 10
23.08.2019 20:00:00 - - - - - - -
23.08.2019 19:00:00 - - - - - - -
23.08.2019 18:00:00 24,5 6,0 8 4 SW 1014,9 10
23.08.2019 17:00:00 - - - - - - -
23.08.2019 16:00:00 - - - - - - -
23.08.2019 15:00:00 25,8 4,1 0 0 N 1014,5 10
23.08.2019 14:00:00 - - - - - - -
23.08.2019 13:00:00 - - - - - - -
23.08.2019 12:00:00 19,2 4,9 4 2 W 1017,5 7
23.08.2019 11:00:00 - - - - - - -
23.08.2019 10:00:00 - - - - - - -
23.08.2019 09:00:00 8,2 4,7 0 0 N 1019,9 8
23.08.2019 08:00:00 - - - - - - -
23.08.2019 07:00:00 - - - - - - -
23.08.2019 06:00:00 7,7 4,4 0 0 N 1018,8 10
23.08.2019 05:00:00 - - - - - - -
23.08.2019 04:00:00 - - - - - - -
23.08.2019 03:00:00 9,2 4,7 0 0 N 1020,0 10
23.08.2019 02:00:00 - - - - - - -
23.08.2019 01:00:00 - - - - - - -
23.08.2019 00:00:00 12,4 5,4 0 0 N 1018,9 10
22.08.2019 23:00:00 - - - - - - -
22.08.2019 22:00:00 - - - - - - -
22.08.2019 21:00:00 18,7 5,8 5 3 S 1016,4 10
22.08.2019 20:00:00 - - - - - - -
22.08.2019 19:00:00 - - - - - - -
22.08.2019 18:00:00 28,2 1,1 0 0 N 1012,4 10
22.08.2019 17:00:00 - - - - - - -
22.08.2019 16:00:00 - - - - - - -
22.08.2019 15:00:00 25,8 2,8 0 0 N 1015,1 10
22.08.2019 14:00:00 - - - - - - -
22.08.2019 13:00:00 - - - - - - -
22.08.2019 12:00:00 17,0 5,6 0 0 N 1020,5 10
22.08.2019 11:00:00 - - - - - - -
22.08.2019 10:00:00 - - - - - - -
22.08.2019 09:00:00 4,8 4,3 0 0 N 1023,3 8
22.08.2019 08:00:00 - - - - - - -
22.08.2019 07:00:00 - - - - - - -
22.08.2019 06:00:00 5,1 4,6 0 0 N 1023,4 8
22.08.2019 05:00:00 - - - - - - -
22.08.2019 04:00:00 - - - - - - -
22.08.2019 03:00:00 6,9 5,8 0 0 N 1024,4 8
22.08.2019 02:00:00 - - - - - - -
22.08.2019 01:00:00 - - - - - - -
22.08.2019 00:00:00 10,0 7,2 0 0 N 1023,8 8
21.08.2019 23:00:00 - - - - - - -
21.08.2019 22:00:00 - - - - - - -
21.08.2019 21:00:00 12,4 7,6 0 0 N 1022,7 8
21.08.2019 20:00:00 - - - - - - -
21.08.2019 19:00:00 - - - - - - -
21.08.2019 18:00:00 15,0 7,9 4 2 S 1021,7 8
21.08.2019 17:00:00 - - - - - - -
21.08.2019 16:00:00 - - - - - - -
21.08.2019 15:00:00 15,9 6,0 2 1 SSE 1020,9 8
21.08.2019 14:00:00 - - - - - - -
21.08.2019 13:00:00 - - - - - - -
21.08.2019 12:00:00 14,6 4,1 4 2 S 1021,3 8
21.08.2019 11:00:00 - - - - - - -
21.08.2019 10:00:00 - - - - - - -
21.08.2019 09:00:00 8,0 2,7 0 0 N 1020,1 10
21.08.2019 08:00:00 - - - - - - -
21.08.2019 07:00:00 - - - - - - -
21.08.2019 06:00:00 6,9 1,3 0 0 N 1019,5 10
21.08.2019 05:00:00 - - - - - - -
21.08.2019 04:00:00 - - - - - - -
21.08.2019 03:00:00 10,0 1,5 0 0 N 1019,7 10
21.08.2019 02:00:00 - - - - - - -
21.08.2019 01:00:00 - - - - - - -
21.08.2019 00:00:00 15,0 4,5 5 3 S 1018,9 10
20.08.2019 23:00:00 - - - - - - -
20.08.2019 22:00:00 - - - - - - -
20.08.2019 21:00:00 19,4 4,6 5 3 S 1016,5 10
20.08.2019 20:00:00 - - - - - - -
20.08.2019 19:00:00 - - - - - - -
20.08.2019 18:00:00 25,4 -0,9 4 2 SSE 1012,4 10
20.08.2019 17:00:00 - - - - - - -
20.08.2019 16:00:00 - - - - - - -
20.08.2019 15:00:00 24,6 -0,8 4 2 SW 1014,4 10
20.08.2019 14:00:00 - - - - - - -
20.08.2019 13:00:00 - - - - - - -
20.08.2019 12:00:00 17,5 5,1 0 0 N 1018,1 10
20.08.2019 11:00:00 - - - - - - -
20.08.2019 10:00:00 - - - - - - -
20.08.2019 09:00:00 8,1 5,0 0 0 N 1019,3 10
20.08.2019 08:00:00 - - - - - - -
20.08.2019 07:00:00 - - - - - - -
20.08.2019 06:00:00 8,1 5,2 0 0 N 1019,7 10
20.08.2019 05:00:00 - - - - - - -
20.08.2019 04:00:00 - - - - - - -
20.08.2019 03:00:00 9,2 6,1 0 0 N 1020,0 10
20.08.2019 02:00:00 - - - - - - -
20.08.2019 01:00:00 - - - - - - -
20.08.2019 00:00:00 9,7 6,0 0 0 N 1020,2 10
19.08.2019 23:00:00 - - - - - - -
19.08.2019 22:00:00 - - - - - - -
19.08.2019 21:00:00 11,2 5,7 0 0 N 1021,0 10
19.08.2019 20:00:00 - - - - - - -
19.08.2019 19:00:00 - - - - - - -
19.08.2019 18:00:00 12,8 5,2 0 0 N 1019,6 8
19.08.2019 17:00:00 - - - - - - -
19.08.2019 16:00:00 - - - - - - -
19.08.2019 15:00:00 13,5 5,8 - - - 1019,7 8
19.08.2019 14:00:00 - - - - - - -
19.08.2019 13:00:00 - - - - - - -
19.08.2019 12:00:00 9,7 5,0 0 0 N 1021,7 8
19.08.2019 11:00:00 - - - - - - -
19.08.2019 10:00:00 - - - - - - -
19.08.2019 09:00:00 7,3 5,7 2 1 WNW 1021,8 6
19.08.2019 08:00:00 - - - - - - -
19.08.2019 07:00:00 - - - - - - -
19.08.2019 06:00:00 7,2 6,7 0 0 N 1022,1 8
19.08.2019 05:00:00 - - - - - - -
19.08.2019 04:00:00 - - - - - - -
19.08.2019 03:00:00 7,6 6,8 0 0 N 1023,0 8

tt = temperature
td = dewpoint
ff = wind speed
dd = wind direction
ppp = reduced air pressure
vv = visibility

Next stations